COSMOS 1052

Satellite information

Favourite Embed

Satellite Type and Status

PAYLOADIN ORBIT

Key statistics

Satellite COSMOS 1052 at a glance.

Uptime

17176

Days in orbit

Revolutions

≈ 12.5

Per day

Orbit

LEO

Low Earth Orbit

Inclination

74.0

Latest

Satellite identification and parameters

Extended collection of information and parameters for COSMOS 1052.

Object identification

Identified? True

Debris? False

Object name: COSMOS 1052

International designator: 1978-109B

Object number (NORAD): 11129

Object ID (CCSDS): 11129

Country: COMMONWEALTH OF INDEPENDENT STATES (CIS)

Current information (Y/N): Y

RCS size: MEDIUM

Orbital parameters

Period: 114.858 minutes

Inclination: 74.0184 deg

SMA: 7827.09 km

Apoapsis: 1486.979 km

Periapsis: 1410.931 km

RAAN: 39.7385 deg

Eccentricy: 0.004858

Argument of periapsis: 69.7845 deg

Mean anomaly: 51.5972 deg

Mean motion: 12.53724839 rev/day

Mean motion (dot): -0.00000016 rev/day2

B* drag term: -0.000004002342 1/REarth

Two-line elements (TLE)

Creation date: Dec. 14, 2025, 3:07 a.m.

Reference frame: TEME

Reference center: EARTH

Epoch: Dec. 13, 2025, 3:44 p.m. UTC

TLE line 0: 0 COSMOS 1052

TLE line 1: 1 11129U 78109B 25347.65621333 -.00000016 00000-0 -40023-5 0 9992

TLE line 2: 2 11129 74.0184 39.7385 0048580 69.7845 51.5972 12.53724839152066

Live tracking on map

Real-time ground track for satellite COSMOS 1052.

In-orbit conjunctions

There are no conjunctions computed for COSMOS 1052, at the moment. Check back to stay up to date, as we update our databases every day.

Go to all conjunctions

Associated space launch

Military communications satellites

COSMOS 1052 was lifted into orbit during the mission ‘Kosmos-3M | Strela-1M 161-168’, on board a Kosmos-3M space rocket.

The launch took place on Dec. 5, 1978, 6:12 p.m. from 132/2.

For more information about the launch, click the button.

Launch to space Kosmos-3M | Strela-1M 161-168
Kosmos-3M | Strela-1M 161-168

Agency: N/A

Status: Launch Successful

Launch date: Dec. 5, 1978, 6:12 p.m. UTC

Rocket: Kosmos-3M

Launch pad: 132/2

Location: Plesetsk Cosmodrome, Russian Federation

...

Latest news about this satellite

There are no fresh news available about this satellite. Check back as we update our databases every day.


Newsletter sign-up

Weekly statistics, charts and insights to help you stay on top of the space industry.